Current Conditions
Mostly Clear
Conditions



Pressure
1008.81 (hPa) - 29.79 (inHG)
Visibility

9.7 (km) - 6.0 (miles)
Temperature
9  °C
Temperature
-1  °C
Dewpoint
50  %
 Humidity
Wind Speed
2  km/h
1  kts
1  mph
0.4  m/s
Wind Direction
N
45°
E
90°
135°
S
180°
225°
W
270°
315°
Calm

Due North
Airport Data
LIPB
Bolzano Airport
Metar :LIPB 180650Z VRB01KT CAVOK 09/M01 Q1009
Thu 18th April 08:50 am
Raw Metar Info
Raw METAR is the most common format in the world for the transmission of observational weather data. It is highly standardized through the International Civil Aviation Organization (ICAO), which allows it to be understood throughout most of the world.
API Info
Data Provided by
https://www.checkwx.com/weather/LIPB

Aviation Weather providing METAR, TAF, AIRMET, SIGMET and OUTLOOK Weather Reports
© Info
CSS/SVG/PHP scripts were developed by weather34 for use in the weather34 template © 2015-2024

Guide Info provided by Metar-Wikipedia